TimeCDT,TemperatureF,Dew PointF,Humidity,Sea Level PressureIn,VisibilityMPH,Wind Direction,Wind SpeedMPH,Gust SpeedMPH,PrecipitationIn,Events,Conditions,WindDirDegrees,DateUTC
12:15 AM,80.6,53.6,39,29.97,10.0,WNW,6.9,-,N/A,,Clear,290,2013-09-01 05:15:00
12:35 AM,78.8,57.2,47,29.97,10.0,NNW,9.2,-,N/A,,Clear,330,2013-09-01 05:35:00
12:55 AM,77.0,59.0,54,30.02,10.0,Calm,Calm,-,N/A,,Clear,0,2013-09-01 05:55:00
1:15 AM,77.0,59.0,54,30.05,10.0,ESE,5.8,-,N/A,,Clear,110,2013-09-01 06:15:00
1:35 AM,73.4,60.8,65,30.06,10.0,South,5.8,-,N/A,,Clear,190,2013-09-01 06:35:00
1:55 AM,71.6,62.6,73,30.07,10.0,SSW,5.8,-,N/A,,Clear,210,2013-09-01 06:55:00
2:15 AM,69.8,62.6,78,30.06,10.0,Calm,Calm,-,N/A,,Clear,0,2013-09-01 07:15:00
2:35 AM,69.8,62.6,78,30.05,10.0,SW,4.6,-,N/A,,Clear,220,2013-09-01 07:35:00
2:55 AM,68.0,62.6,83,30.05,10.0,West,5.8,-,N/A,,Clear,280,2013-09-01 07:55:00
3:15 AM,68.0,62.6,83,30.05,10.0,WNW,5.8,-,N/A,,Clear,290,2013-09-01 08:15:00
3:35 AM,68.0,62.6,83,30.06,10.0,West,4.6,-,N/A,,Clear,260,2013-09-01 08:35:00
3:55 AM,66.2,62.6,88,30.05,10.0,West,6.9,-,N/A,,Clear,270,2013-09-01 08:55:00
4:15 AM,64.4,60.8,88,30.04,10.0,WNW,5.8,-,N/A,,Clear,290,2013-09-01 09:15:00
4:35 AM,64.4,62.6,94,30.03,10.0,WNW,8.1,-,N/A,,Clear,290,2013-09-01 09:35:00
4:55 AM,64.4,60.8,88,30.03,10.0,WNW,8.1,-,N/A,,Clear,290,2013-09-01 09:55:00
5:15 AM,68.0,60.8,78,30.04,10.0,North,11.5,-,N/A,,Clear,350,2013-09-01 10:15:00
5:35 AM,68.0,60.8,78,30.04,10.0,North,10.4,-,N/A,,Clear,350,2013-09-01 10:35:00
5:55 AM,68.0,62.6,83,30.04,10.0,North,10.4,-,N/A,,Clear,350,2013-09-01 10:55:00
6:15 AM,66.2,62.6,88,30.05,10.0,North,10.4,-,N/A,,Clear,360,2013-09-01 11:15:00
6:35 AM,64.4,62.6,94,30.06,10.0,North,10.4,-,N/A,,Clear,360,2013-09-01 11:35:00
6:55 AM,64.4,62.6,94,30.07,10.0,North,11.5,-,N/A,,Clear,10,2013-09-01 11:55:00
7:15 AM,66.2,62.6,88,30.08,10.0,NNE,15.0,18.4,N/A,,Clear,20,2013-09-01 12:15:00
7:35 AM,68.0,60.8,78,30.08,10.0,NNE,12.7,-,N/A,,Clear,20,2013-09-01 12:35:00
7:55 AM,68.0,62.6,83,30.08,10.0,NNE,12.7,-,N/A,,Clear,30,2013-09-01 12:55:00
8:15 AM,68.0,60.8,78,30.09,10.0,NNE,17.3,23.0,N/A,,Clear,30,2013-09-01 13:15:00
8:35 AM,69.8,60.8,73,30.10,10.0,NNE,16.1,21.9,N/A,,Clear,30,2013-09-01 13:35:00
8:55 AM,71.6,59.0,64,30.11,10.0,NE,16.1,23.0,N/A,,Clear,40,2013-09-01 13:55:00
9:15 AM,71.6,55.4,57,30.12,10.0,NNE,20.7,26.5,N/A,,Clear,30,2013-09-01 14:15:00
9:35 AM,73.4,55.4,53,30.12,10.0,NE,18.4,21.9,N/A,,Clear,40,2013-09-01 14:35:00
9:55 AM,73.4,55.4,53,30.12,10.0,NE,19.6,-,N/A,,Clear,50,2013-09-01 14:55:00
10:15 AM,73.4,53.6,50,30.13,10.0,NE,20.7,26.5,N/A,,Clear,40,2013-09-01 15:15:00
10:35 AM,75.2,53.6,47,30.14,10.0,NE,17.3,27.6,N/A,,Clear,50,2013-09-01 15:35:00
10:55 AM,75.2,51.8,44,30.15,10.0,NE,23.0,27.6,N/A,,Clear,50,2013-09-01 15:55:00
11:15 AM,77.0,51.8,41,30.15,10.0,NE,18.4,21.9,N/A,,Clear,40,2013-09-01 16:15:00
11:35 AM,78.8,51.8,39,30.15,10.0,NE,16.1,23.0,N/A,,Clear,40,2013-09-01 16:35:00
11:55 AM,78.8,51.8,39,30.15,10.0,ENE,16.1,23.0,N/A,,Clear,60,2013-09-01 16:55:00
12:15 PM,80.6,50.0,34,30.16,10.0,NNE,16.1,-,N/A,,Clear,30,2013-09-01 17:15:00
12:35 PM,80.6,50.0,34,30.15,10.0,NNE,17.3,-,N/A,,Clear,20,2013-09-01 17:35:00
12:55 PM,80.6,50.0,34,30.15,10.0,NE,12.7,24.2,N/A,,Clear,40,2013-09-01 17:55:00
1:15 PM,80.6,51.8,37,30.14,10.0,NE,12.7,20.7,N/A,,Clear,40,2013-09-01 18:15:00
1:35 PM,82.4,50.0,32,30.14,10.0,North,13.8,19.6,N/A,,Clear,10,2013-09-01 18:35:00
1:55 PM,82.4,51.8,35,30.14,10.0,NE,6.9,-,N/A,,Clear,40,2013-09-01 18:55:00
2:15 PM,82.4,51.8,35,30.13,10.0,NNE,13.8,17.3,N/A,,Clear,20,2013-09-01 19:15:00
2:35 PM,84.2,51.8,33,30.13,10.0,NNE,9.2,-,N/A,,Clear,30,2013-09-01 19:35:00
2:55 PM,84.2,50.0,30,30.12,10.0,NNE,8.1,17.3,N/A,,Clear,30,2013-09-01 19:55:00
3:15 PM,84.2,50.0,30,30.12,10.0,NE,9.2,-,N/A,,Clear,40,2013-09-01 20:15:00
3:35 PM,84.2,50.0,30,30.11,10.0,NNE,5.8,17.3,N/A,,Clear,20,2013-09-01 20:35:00
3:55 PM,86.0,50.0,29,30.10,10.0,NNE,5.8,-,N/A,,Clear,30,2013-09-01 20:55:00
4:15 PM,84.2,50.0,30,30.10,10.0,NNE,8.1,18.4,N/A,,Clear,20,2013-09-01 21:15:00
4:35 PM,84.2,50.0,30,30.10,10.0,NE,9.2,-,N/A,,Clear,50,2013-09-01 21:35:00
4:55 PM,86.0,50.0,29,30.10,10.0,East,8.1,-,N/A,,Clear,80,2013-09-01 21:55:00
5:15 PM,84.2,50.0,30,30.09,10.0,NE,9.2,-,N/A,,Clear,40,2013-09-01 22:15:00
5:35 PM,84.2,51.8,33,30.09,10.0,NNW,3.5,-,N/A,,Clear,330,2013-09-01 22:35:00
5:55 PM,84.2,51.8,33,30.09,10.0,NE,4.6,-,N/A,,Clear,50,2013-09-01 22:55:00
6:15 PM,86.0,51.8,31,30.09,10.0,NW,4.6,-,N/A,,Clear,320,2013-09-01 23:15:00
6:35 PM,84.2,51.8,33,30.09,10.0,NE,4.6,-,N/A,,Clear,50,2013-09-01 23:35:00
6:55 PM,82.4,51.8,35,30.09,10.0,ENE,6.9,-,N/A,,Clear,70,2013-09-01 23:55:00
7:15 PM,82.4,51.8,35,30.09,10.0,East,5.8,-,N/A,,Clear,80,2013-09-02 00:15:00
7:35 PM,80.6,51.8,37,30.09,10.0,East,6.9,-,N/A,,Clear,80,2013-09-02 00:35:00
7:55 PM,78.8,51.8,39,30.09,10.0,East,5.8,-,N/A,,Clear,80,2013-09-02 00:55:00
8:15 PM,75.2,50.0,41,30.10,10.0,ENE,8.1,-,N/A,,Clear,70,2013-09-02 01:15:00
8:35 PM,73.4,50.0,44,30.10,10.0,ENE,8.1,-,N/A,,Clear,70,2013-09-02 01:35:00
8:55 PM,71.6,50.0,46,30.10,10.0,ENE,8.1,-,N/A,,Clear,70,2013-09-02 01:55:00
9:15 PM,69.8,51.8,53,30.11,10.0,ENE,6.9,-,N/A,,Clear,70,2013-09-02 02:15:00
9:35 PM,68.0,51.8,56,30.12,10.0,ENE,8.1,-,N/A,,Clear,70,2013-09-02 02:35:00
9:55 PM,68.0,50.0,52,30.13,10.0,East,6.9,-,N/A,,Clear,80,2013-09-02 02:55:00
10:15 PM,68.0,50.0,52,30.13,10.0,East,5.8,-,N/A,,Clear,80,2013-09-02 03:15:00
10:35 PM,68.0,50.0,52,30.14,10.0,East,8.1,-,N/A,,Scattered Clouds,80,2013-09-02 03:35:00
10:55 PM,66.2,50.0,56,30.14,10.0,East,4.6,-,N/A,,Mostly Cloudy,100,2013-09-02 03:55:00
11:15 PM,64.4,50.0,59,30.14,10.0,Calm,Calm,-,N/A,,Scattered Clouds,0,2013-09-02 04:15:00
11:35 PM,64.4,50.0,59,30.15,10.0,Calm,Calm,-,N/A,,Mostly Cloudy,0,2013-09-02 04:35:00
11:55 PM,64.4,50.0,59,30.15,10.0,SE,3.5,-,N/A,,Scattered Clouds,130,2013-09-02 04:55:00